www.pogodaiklimat.ru
ПОГОДА в Лавлоке
Время
(UTC), дата
00:53 18.11
01:53 18.11
02:53 18.11
03:53 18.11
04:53 18.11
05:53 18.11
06:53 18.11
07:53 19.11
08:53 19.11
09:53 19.11
10:53 19.11
11:53 19.11
12:53 19.11
13:53 19.11
14:53 19.11
15:53 19.11
16:53 19.11
17:53 19.11
18:53 19.11
19:53 19.11
20:53 19.11
21:53 19.11
22:53 19.11
23:53 19.11
00:53 19.11
01:53 19.11
02:53 19.11
03:53 19.11
04:53 19.11
05:53 19.11
06:53 19.11
07:53 20.11
08:53 20.11
09:53 20.11
10:53 20.11
11:53 20.11
12:53 20.11
13:53 20.11
14:53 20.11
15:53 20.11
16:53 20.11
17:53 20.11
18:53 20.11
19:53 20.11
20:53 20.11
21:53 20.11
22:53 20.11
23:53 20.11
Ветер
(напр.,м/с)
Видим. Явления Облачность Т
(С)
Тd
(С)
f
(%)
Тe
(С)
Тes
(С)
Комфортность P
(гПа)
Po
(гПа)
Тmin
(С)
Tmax
(С)
R
(мм)
R24
(мм)
S
(см)
0 16 км ясно +8.3 -3.9 42 +8 +8 1015.0 878.7
0 16 км ясно +3.9 -7.8 42 +4 +4 1015.6 878.4
В 2 16 км ясно +2.2 -7.8 48 -1 -1 1014.7 878.1
ЮВ 1 16 км ясно +1.1 -8.9 47 -1 -1 1013.6 877.8
0 16 км ясно +0.6 -8.3 51 0 0 1012.8 877.2 -0.6 +15.0
СВ 2 16 км ясно -0.6 -8.3 56 -4 -4 1011.6 876.9
С 2 16 км ясно -1.1 -9.4 53 -5 -5 1011.2 876.7
0 16 км ясно -2.2 -9.4 58 -3 -3 1009.9 875.5
ЮЗ 1 16 км ясно -1.1 -9.4 53 -4 -4 1008.9 874.9
0 16 км ясно 0.0 -7.8 56 -1 -1 1007.9 874.0
ЮВ 4 16 км ясно 0.0 -8.3 54 -5 -5 1007.9 874.0 -2.2 +1.7
З 3 16 км ясно +1.7 -5.6 58 -2 -2 1007.7 873.4
СЗ 4 16 км ясно +2.8 -5.6 54 -1 -1 1007.3 872.8
нст 1 16 км ясно +0.6 -6.1 61 -2 -2 1008.7 873.4
СЗ 3 16 км 5/0 3600 м
[средняя]
+3.3 -4.4 57 -0 -0 1008.8 873.7
Ю 2 16 км 10/0 2550 м
[средняя]
+7.8 -3.3 45 +6 +6 1008.1 873.4
СЗ 1 16 км 8/0 3000 м
[средняя]
+11.7 -2.8 36 +12 +12 1007.0 872.8 0.0 +11.7
0 16 км 8/0 2100 м
[средняя]
+15.6 -2.8 28 +16 +18 1005.8 872.3
0 16 км ясно +18.3 -1.7 26 +18 +25 1004.3 871.1
З 1 16 км ясно +17.2 -0.6 30 +18 +24 1003.1 869.9
Ю 3 16 км ясно +16.7 0.0 32 +16 +20 1002.4 869.3
З 2 16 км 8/0 2100 м
[средняя]
+16.7 0.0 32 +17 +18 1001.8 869.0
С 5
{9}
16 км ясно +15.0 0.0 36 +14 +14 1001.4 868.4 +11.7 +18.3
СЗ 10
{17}
16 км слабый дождь 10/0 2100 м
[средняя]
+10.6 +3.3 61 +6 +6 1002.8 869.3
СВ 4 16 км слабый дождь 10/10 1290 м +9.4 +3.3 66 +6 +6 1003.8 870.2
СВ 4 8 км дождь 10/10 1080 м +7.8 +5.0 82 +4 +4 1004.2 870.2
0 11 км дождь 10/10 1110 м +7.2 +5.6 90 +6 +6 1004.0 870.2
З 2 13 км слабый дождь 10/10 1140 м +7.2 +5.0 86 +5 +5 1003.6 870.2
0 13 км слабый дождь 10/10 1080 м +7.2 +5.0 86 +6 +6 1003.2 870.2 +7.2 +15.0
З 3 16 км слабый дождь 10/10 1200 м +6.7 +4.4 85 +4 +4 1002.8 870.5
СВ 6
{9}
16 км слабый дождь 10/10 1020 м +7.2 +2.8 74 +3 +3 1002.1 870.2
С 1 16 км слабый дождь 10/10 1500 м +6.1 +3.3 82 +4 +4 1002.1 869.9
С 1 16 км 10/0 2250 м
[средняя]
+6.7 +2.2 73 +5 +5 1002.0 869.9
СВ 6 16 км 10/0 2100 м
[средняя]
+6.7 +0.6 65 +2 +2 1001.6 869.6
С 7
{10}
16 км 10/10 1800 м +7.2 -0.6 58 +3 +3 1001.9 869.6 +6.1 +8.3 8.4
С 4
{10}
16 км 10/10 1650 м +6.1 -0.6 62 +2 +2 1002.7 869.6
С 8
{12}
16 км 10/10 1500 м +5.6 -1.1 62 0 0 1003.0 869.9
С 9
{13}
16 км 10/10 1410 м +5.6 -1.1 62 -0 -0 1003.8 870.2
С 10
{15}
16 км 10/10 1320 м +5.6 -1.1 62 -1 -1 1004.2 870.5
С 10
{13}
16 км 10/10 1410 м +5.6 0.0 67 -1 -1 1004.8 871.1
СВ 10
{14}
16 км слабый дождь 10/10 1170 м +5.0 0.0 70 -2 -2 1005.1 871.1 +5.0 +7.2
СВ 12
{15}
16 км 10/8 1200 м
[средняя]
+5.0 0.0 70 -2 -2 1005.1 871.1
СВ 9
{13}
16 км 10/10 1170 м +5.6 0.0 67 -0 -0 1004.8 871.1
СВ 8 16 км 10/8 1320 м
[средняя]
+5.6 0.0 67 -0 -0 1004.8 871.1
СВ 9
{12}
16 км 10/10 1440 м +6.7 -0.6 60 +1 +1 1004.7 871.1
СВ 7 16 км 10/10 1500 м +7.2 -1.1 56 +3 +3 1004.7 871.1
СВ 6
{10}
16 км слабый дождь 10/5 1650 м
[средняя]
+6.7 -0.6 60 +2 +2 1005.0 871.4 +5.0 +7.2
СВ 6 16 км слабый дождь 10/8 1500 м
[средняя]
+6.1 0.0 65 +1 +1 1005.8 872.0
Местоположение метеостанции Derby Field Airport: широта 40.0684 долгота -118.5702 высота над уровнем моря 1189 м.
В архиве по умолчанию представлена погода в Лавлоке за последние 1-2 суток. Обновление информации о фактической погоде в базе происходит ежечасно! Архивные данные за месяц целиком и за предыдущие месяцы Вы можете получить, выбрав интересующий диапазон дат из раскрывающегося списка и нажав кнопку "Ввод!".
Внимание! Архив погоды МЕТАР в базе сайта по станциям, не включенным в климатический монитор, хранится не более 60 дней. Нет смысла пытаться выбрать более раннюю дату.
*Определитесь, кто Вы:
Внимание! Время в таблицах - всемирное. Для получения местного времени необходимо прибавить поправку, которая равна ч.
Смотрите также архив погоды в соседних городах и на ближайших метеорологических станциях:
Партнеры нашего сайта:      
Пояснения к столбцам:
  • Ветер - указаны скорость ветра в м/с - средняя за 10 мин, порывы в срок и между сроками (в фигурных скобках) и направление, откуда дует ветер: С - северный,
  • СВ - северо-восточный, В - восточный, ЮВ - юго-восточный, Ю - южный, ЮЗ - юго-западный, З - западный, СЗ - северо-западный.
  • Видимость - горизонтальная дальность видимости в метрах или километрах. При видимости от 1 до 10 км при отсутствии осадков обычно наблюдается дымка, при ухудшении видимости до 1 км и менее - туман. В сухую погоду видимость может ухудшаться дымом, пылью или мглою.
  • Явления - указаны атмосферные явления, наблюдавшиеся в срок или в последний час перед сроком; фигурными скобками обозначены явления, наблюдавшиеся между сроками (за 1-3 часа до срока); квадратными скобками обозначены град или гололедные отложения с указанием их диаметра в мм.
  • Облачность - указаны через наклонную черту общая и нижняя облачность в баллах и высота нижней границы облаков в метрах; квадратными скобками обозначены формы облаков: Ci - перистые, Cs - перисто-слоистые, Cc - перисто-кучевые, Ac - высококучевые, As - высокослоистые, Sc - слоисто-кучевые, Ns - слоисто-дождевые, Cu - кучевые, Cb - кучево-дождевые. Подробнее классификацию облаков см. в Атласе облаков (PDF).
  • T - Температура воздуха - температура, измеренная на высоте 2 м над землей.
  • Td - Температура точки росы - температура, при понижении до которой содержащийся в воздухе водяной пар достигнет насыщения.
  • f - Относительная влажность воздуха - влажноcть воздуха, измеренная на высоте 2 м над землей.
  • Te - Эффективная температура - температура, которую ощущает одетый по сезону человек в тени. Характеристика душности погоды. При расчете учитывается влияние влажности воздуха и скорости ветра на теплоощущения человека.
  • Tes - Эффективная температура на солнце - температура, которую ощущает человек, с поправкой на солнечный нагрев. Характеристика знойности погоды. Зависит от высоты солнца над горизонтом, облачности и скорости ветра. Ночью, в пасмурную погоду, а также при ветре 12 м/с и более поправка равна нулю.
  • P - Атмосферное давление - приведенное к уровню моря атмосферное давление.
  • Po - Атмосферное давление - измеренное на уровне метеостанции атмосферное давление.
  • Tmin - Минимальная температура - минимум температуры воздуха на высоте 2 м над землей.
  • Tmax - Максимальная температура - максимум температуры воздуха на высоте 2 м над землей.
  • R - Количество осадков - Количество выпавших осадков за период времени, мм. При наведении курсора мыши на число - период времени, за который выпало указанное количество осадков.
  • R24 - Количество осадков - Количество выпавших осадков за 24 часа, мм.
  • S - Снежный покров - Высота снежного покрова, см. При наведении курсора мыши на число - состояние снежного покрова и степень покрытия местности в баллах.